COSMOS 1275 DEB, 14408

Orbit data source: Space-Track

COSMOS 1275 DEB, 14408 is space debris in LEO originally from a launch on Thu, 04 Jun 1981 UTC launched from the Plesetsk Missile And Space Complex (PKMTR). Debris objects in space refer to the collection of defunct objects orbiting the Earth. Examples of debris include non-operational satellites, rocket bodies, and fragments generated from explosions, collisions, or faulty payload assembly.

Loading next visibility...
Identifier
14408, 1981-053JD
Orbit
LEO
Country
Flag of CISCIS
Related business
Manufacturer
Unknown
Mission
Spacecraft
Bus & Motor
Unknown
Mass
Unknown
Launch date (UTC)
1981-06-04 (45 years ago)
Launch vehicle
Unknown
Launch site
Plesetsk Missile And Space Complex (PKMTR)
Object type
Payload
Rocket body
Debris
Shape & HBR
Unknown shape, 0.1 m
Radar Cross Section
Small (<0.1 m²)

Expand to show TLE details & history
Last TLE update: 1 week ago

TLE from 1 week ago
0 COSMOS 1275 DEB
1 14408U 81053JD  26164.32444230  .00000859  00000-0  86907-3 0  9990
2 14408  82.9618 175.4432 0115692  41.2444 335.3181 13.73168734702930
Epoch: 2026-06-13T07:47Z
TLE epoch observation values (Epoch: 2026-06-13T07:47:11.814Z)
Latitude
15.8581°
Longitude
159.0021°
Altitude
913.169 km
Speed
7.435 km/s
True Right ascension
11h 49m 46s
True Declination
15° 46' 12"
Sunlit
Object was in daylight at epoch
Visualization orbit readout
Latitude
Unknown
Longitude
Unknown
Altitude
Unknown
Speed
Unknown
Apparent Right ascension
Unknown
Apparent Declination
Unknown
Sunlit
N/A
Visualization observer readout
Local Sidereal Time
23:27:02
Azimuth
Unknown
Elevation
Unknown
Doppler factor
Unknown
Orbital elements
Apogee altitude
1,070.557 km
Perigee altitude
900.177 km
Semi-major axis
7,363.504 km
Eccentricity
0.01157
Inclination
82.9618°
RAAN
175.4432°
Arg. of periapsis
41.2444°
True anomaly
334.75714°
Mean anomaly
335.3181°
Eccentric anomaly
335.03836°
Mean motion
3.43492 °/min
Orbital period
104.81 mins
BSTAR
0.00086907
Loading maneuver chart data...
Computing Atmospheric mass density...

Documentation

Showing up to 5 results
|